#timestamp,LO_Frequency,Hit 
1500159615.5,286047030.5,N
1500159635.3,286047033.2,N
1500159655.2,286047032.8,N
1500159675.9,286047032.3,N
1500159695.7,286047032.8,N
1500159715.6,286047032.3,N
1500159735.4,286047030.5,N
1500159755.2,286047030.9,N
1500159775.0,286047028.7,N
1500159776.0,286047028.7,N
1500159795.8,286047031.3,N
1500159815.6,286047030.5,N
1500159835.4,286047033.1,N
1500159855.3,286047031.1,N
1500159875.1,286047030.3,N
1500159895.8,286047030.8,N
1500159915.7,286047030.9,N
1500159935.5,286047030.2,N
1500159955.3,286047029.3,N
1500159975.2,286047029.4,N
1500159995.9,286047030.7,N
1500160015.7,286047029.4,N
1500160035.6,286047027.5,N
1500160055.4,286047029.3,N
1500160075.2,286047029.4,N
1500160095.1,286047029.8,N
1500160096.0,286047029.8,N
1500160115.8,286047029.3,N
1500160135.6,286047030.9,N
1500160155.5,286047033.6,N
1500160175.3,286047034.1,N
1500160195.1,286047032.6,N
1500160215.8,286047033.9,N
1500160235.7,286047035.6,N
1500160255.5,286047034.2,N
1500160275.3,286047034.6,N
1500160295.2,286047033.8,N
1500160315.9,286047030.1,N
1500160335.7,286047030.7,N
1500160355.6,286047030.3,N
1500160375.4,286047032.7,N
1500160395.2,286047033.2,N
1500160415.1,286047028.8,N
1500160416.0,286047028.8,N
1500160435.8,286047031.6,N
1500160455.6,286047030.4,N
1500160475.5,286047031.7,N
1500160495.3,286047034.5,N
1500160515.1,286047035.3,N
1500160535.8,286047034.3,N
1500160555.7,286047032.6,N
1500160575.5,286047032.4,N
1500160595.3,286047032.1,N
1500160615.2,286047030.7,N
1500160635.0,286047031.2,N
1500160635.9,286047031.2,N
1500160655.7,286047031.3,N
1500160675.6,286047028.7,N
1500160695.4,286047031.4,N
1500160715.2,286047030.9,N
1500160735.1,286047030.3,N
1500160736.0,286047030.3,N
1500160755.8,286047029.7,N
1500160775.6,286047031.6,N
1500160795.5,286047031.6,N
1500160815.3,286047030.4,N
1500160835.1,286047029.4,N
1500160855.9,286047028.1,N
1500160875.7,286047025.5,N
1500160895.5,286047027.4,N
1500160915.4,286047026.9,N
1500160935.2,286047027.7,N
1500160955.0,286047029.4,N
1500160955.9,286047029.4,N
1500160975.8,286047029.9,N
1500160995.6,286047028.6,N
1500161015.4,286047029.7,N
1500161035.2,286047030.0,N
1500161055.1,286047027.1,N
1500161056.0,286047027.1,N
1500161075.8,286047029.9,N
1500161095.6,286047029.8,N
1500161115.5,286047026.9,N
1500161135.3,286047027.0,N
1500161155.1,286047032.0,N
1500161175.9,286047029.3,N
1500161195.7,286047029.6,N
1500161215.5,286047028.2,N
1500161235.4,286047027.5,N
1500161255.2,286047029.1,N
1500161275.0,286047028.1,N
1500161275.9,286047028.1,N
1500161295.8,286047027.6,N
1500161315.6,286047027.5,N
1500161335.4,286047028.1,N
1500161355.3,286047027.1,N
1500161375.1,286047029.1,N
1500161376.0,286047029.1,N
1500161395.8,286047029.9,N
1500161415.7,286047028.8,N
1500161435.5,286047029.6,N
1500161455.3,286047028.8,N
1500161475.2,286047029.7,N
1500161495.9,286047029.4,N
1500161515.7,286047026.9,N
1500161535.5,286047029.2,N
1500161555.4,286047027.4,N
1500161575.2,286047027.3,N
1500161595.0,286047031.6,N
1500161595.9,286047031.6,N
1500161615.8,286047027.0,N
1500161635.6,286047025.7,N
1500161655.4,286047027.7,N
1500161675.3,286047027.8,N
1500161695.1,286047029.9,N
1500161715.8,286047028.5,N
1500161735.7,286047030.9,N
1500161755.5,286047029.3,N
1500161775.3,286047029.8,N
1500161795.2,286047028.9,N
1500161815.9,286047028.9,N
1500161835.7,286047029.4,N
1500161855.6,286047029.8,N
1500161875.4,286047029.9,N
1500161895.2,286047029.9,N
1500161915.1,286047028.8,N
1500161916.0,286047028.8,N
1500161935.8,286047029.0,N
1500161955.6,286047029.3,N
1500161975.4,286047029.8,N
1500161995.3,286047028.9,N
1500162015.1,286047033.1,N
1500162035.8,286047034.6,N
1500162055.7,286047032.6,N
1500162075.5,286047032.9,N
1500162095.3,286047033.2,N
1500162115.2,286047033.1,N
1500162135.9,286047032.8,N
1500162155.7,286047032.2,N
1500162175.6,286047031.3,N
1500162195.4,286047032.8,N
1500162215.2,286047032.9,N
1500162235.1,286047032.8,N
1500162236.0,286047032.8,N
1500162255.8,286047031.1,N
1500162275.6,286047028.8,N
1500162295.5,286047029.1,N
1500162315.3,286047028.8,N
1500162335.1,286047029.0,N
1500162355.9,286047031.8,N
1500162375.7,286047033.2,N
1500162395.5,286047028.5,N
1500162415.3,286047031.3,N
1500162435.2,286047028.7,N
1500162455.0,286047029.5,N
1500162455.9,286047029.5,N
1500162475.7,286047029.3,N
1500162495.6,286047031.1,N
1500162515.4,286047030.4,N
1500162535.2,286047030.2,N
1500162555.1,286047029.0,N
1500162556.0,286047029.0,N
1500162575.8,286047028.6,N
1500162595.6,286047029.3,N
1500162615.5,286047029.3,N
1500162635.3,286047030.4,N
1500162655.1,286047034.8,N
1500162675.9,286047028.9,N
1500162695.7,286047029.3,N
1500162715.5,286047027.1,N
1500162735.4,286047029.6,N
1500162755.2,286047029.2,N
1500162775.0,286047032.7,N
1500162775.9,286047032.7,N
1500162795.8,286047030.5,N
1500162815.6,286047030.9,N
1500162835.4,286047033.1,N
1500162855.2,286047032.9,N
1500162875.1,286047036.1,N
1500162876.0,286047036.1,N
1500162895.8,286047036.7,N
1500162915.6,286047033.5,N
1500162935.5,286047032.4,N
1500162955.3,286047034.8,N
1500162975.1,286047034.6,N
1500162995.9,286047034.8,N
1500163015.7,286047034.5,N
1500163035.5,286047032.0,N
1500163055.4,286047032.3,N
1500163075.2,286047028.6,N
1500163095.0,286047031.6,N
1500163095.9,286047031.6,N
1500163115.8,286047032.0,N
1500163135.6,286047032.0,N
1500163155.4,286047032.1,N
1500163175.3,286047030.4,N
1500163195.1,286047032.0,N
1500163196.0,286047032.0,N
